20040129,000029,2005051,33.851333,-120.120500,13.576,33.123,NaN,NaN
20040129,000059,2005081,33.850667,-120.119000,13.588,33.130,NaN,NaN
20040129,000128,2005110,33.850000,-120.117500,13.580,33.131,NaN,NaN
20040129,000158,2005140,33.849333,-120.115833,13.579,33.131,NaN,NaN
20040129,000229,2005171,33.848667,-120.114333,13.594,33.130,NaN,NaN
20040129,000259,2005201,33.848000,-120.112833,13.606,33.131,NaN,NaN
20040129,000329,2005231,33.847333,-120.111333,13.616,33.131,NaN,NaN
20040129,000358,2005260,33.846500,-120.110000,13.624,33.132,NaN,NaN
20040129,000428,2005290,33.845833,-120.108500,13.628,33.133,NaN,NaN
20040129,000459,2005321,33.845167,-120.107000,13.642,33.134,NaN,NaN
20040129,000529,2005351,33.844500,-120.105333,13.662,33.134,NaN,NaN
20040129,000558,2005380,33.843833,-120.103833,13.692,33.134,NaN,NaN
20040129,000628,2005410,33.843167,-120.102333,13.708,33.136,NaN,NaN
20040129,000659,2005441,33.842500,-120.100833,13.719,33.138,NaN,NaN
20040129,000729,2005471,33.841833,-120.099333,13.722,33.140,NaN,NaN
20040129,000759,2005501,33.841167,-120.098000,13.726,33.140,NaN,NaN
20040129,000828,2005530,33.840500,-120.096500,13.730,33.140,NaN,NaN
20040129,000858,2005560,33.839833,-120.094833,13.734,33.140,NaN,NaN
20040129,000929,2005591,33.839167,-120.093500,13.733,33.141,NaN,NaN
20040129,000959,2005621,33.838500,-120.092000,13.731,33.141,NaN,NaN
20040129,001028,2005650,33.837667,-120.090500,13.737,33.141,NaN,NaN
20040129,001058,2005680,33.837000,-120.089000,13.743,33.141,NaN,NaN
20040129,001129,2005711,33.836333,-120.087500,13.748,33.140,NaN,NaN
20040129,001159,2005741,33.835667,-120.085833,13.751,33.140,NaN,NaN
20040129,001229,2005771,33.834833,-120.084333,13.749,33.141,NaN,NaN
20040129,001258,2005800,33.834167,-120.082833,13.756,33.140,NaN,NaN
20040129,001328,2005830,33.833500,-120.081333,13.767,33.140,NaN,NaN
20040129,001359,2005861,33.832833,-120.079833,13.766,33.140,NaN,NaN
20040129,001429,2005891,33.832167,-120.078167,13.768,33.140,NaN,NaN
20040129,001458,2005920,33.831667,-120.076667,13.785,33.138,NaN,NaN
20040129,001528,2005950,33.831000,-120.075167,13.784,33.140,NaN,NaN
20040129,001559,2005981,33.830167,-120.073667,13.792,33.138,NaN,NaN
20040129,001629,2006011,33.829500,-120.072167,13.804,33.138,NaN,NaN
20040129,001659,2006041,33.828833,-120.070667,13.811,33.140,NaN,NaN
20040129,001728,2006070,33.828167,-120.069000,13.819,33.140,NaN,NaN
20040129,001758,2006100,33.827500,-120.067500,13.823,33.140,NaN,NaN
20040129,001829,2006131,33.826833,-120.066000,13.827,33.140,NaN,NaN
20040129,001859,2006161,33.826000,-120.064500,13.828,33.141,NaN,NaN
20040129,001928,2006190,33.825333,-120.063000,13.828,33.141,NaN,NaN
20040129,001958,2006220,33.824833,-120.061333,13.824,33.141,NaN,NaN
20040129,002029,2006251,33.824167,-120.059833,13.822,33.141,NaN,NaN
20040129,002059,2006281,33.823500,-120.058333,13.820,33.141,NaN,NaN
20040129,002129,2006311,33.822667,-120.056667,13.817,33.141,NaN,NaN
20040129,002158,2006340,33.822000,-120.055167,13.815,33.141,NaN,NaN
20040129,002228,2006370,33.821500,-120.053667,13.816,33.140,NaN,NaN
20040129,002259,2006401,33.820833,-120.052000,13.813,33.141,NaN,NaN
20040129,002329,2006431,33.820167,-120.050500,13.808,33.142,NaN,NaN
20040129,002358,2006460,33.819500,-120.049000,13.807,33.140,NaN,NaN
20040129,002428,2006490,33.818833,-120.047333,13.808,33.140,NaN,NaN
20040129,002459,2006521,33.818167,-120.045833,13.808,33.141,NaN,NaN
20040129,002529,2006551,33.817500,-120.044333,13.807,33.141,NaN,NaN
20040129,002559,2006581,33.816833,-120.042667,13.813,33.140,NaN,NaN
20040129,002628,2006610,33.816167,-120.041167,13.814,33.140,NaN,NaN
20040129,002658,2006640,33.815500,-120.039667,13.817,33.141,NaN,NaN
20040129,002729,2006671,33.814833,-120.038167,13.819,33.142,NaN,NaN
20040129,002759,2006701,33.814167,-120.036500,13.817,33.143,NaN,NaN
20040129,002828,2006730,33.813333,-120.035000,13.814,33.144,NaN,NaN
20040129,002858,2006760,33.812667,-120.033500,13.813,33.144,NaN,NaN
20040129,002929,2006791,33.812000,-120.031833,13.813,33.144,NaN,NaN
20040129,002959,2006821,33.811333,-120.030333,13.814,33.143,NaN,NaN
20040129,003029,2006851,33.810667,-120.028833,13.811,33.145,NaN,NaN
20040129,003058,2006880,33.810000,-120.027167,13.808,33.145,NaN,NaN
20040129,003128,2006910,33.809333,-120.025667,13.805,33.144,NaN,NaN
20040129,003159,2006941,33.808667,-120.024167,13.807,33.143,NaN,NaN
20040129,003229,2006971,33.808000,-120.022667,13.804,33.143,NaN,NaN
20040129,003258,2007000,33.807333,-120.021000,13.805,33.143,NaN,NaN
20040129,003328,2007030,33.806667,-120.019500,13.807,33.143,NaN,NaN
20040129,003359,2007061,33.806000,-120.018000,13.815,33.142,NaN,NaN
20040129,003429,2007091,33.805333,-120.016500,13.817,33.141,NaN,NaN
20040129,003459,2007121,33.804667,-120.015000,13.815,33.141,NaN,NaN
20040129,003528,2007150,33.804000,-120.013500,13.814,33.140,NaN,NaN
20040129,003558,2007180,33.803167,-120.012000,13.812,33.140,NaN,NaN
20040129,003629,2007211,33.802500,-120.010500,13.813,33.137,NaN,NaN
20040129,003659,2007241,33.801833,-120.008833,13.817,33.137,NaN,NaN
20040129,003728,2007270,33.801167,-120.007333,13.817,33.137,NaN,NaN
20040129,003758,2007300,33.800500,-120.005833,13.817,33.137,NaN,NaN
20040129,003829,2007331,33.799833,-120.004333,13.820,33.135,NaN,NaN
20040129,003859,2007361,33.799167,-120.002833,13.818,33.135,NaN,NaN
20040129,003929,2007391,33.798500,-120.001333,13.820,33.133,NaN,NaN
20040129,003958,2007420,33.797833,-119.999833,13.824,33.132,NaN,NaN
20040129,004028,2007450,33.797167,-119.998333,13.827,33.132,NaN,NaN
20040129,004059,2007481,33.796500,-119.996833,13.828,33.132,NaN,NaN
20040129,004129,2007511,33.796000,-119.995333,13.825,33.132,NaN,NaN
20040129,004158,2007540,33.795333,-119.993833,13.820,33.132,NaN,NaN
20040129,004228,2007570,33.794667,-119.992333,13.814,33.132,NaN,NaN
20040129,004259,2007601,33.794000,-119.990833,13.810,33.131,NaN,NaN
20040129,004329,2007631,33.793333,-119.989167,13.806,33.130,NaN,NaN
20040129,004359,2007661,33.792667,-119.987667,13.802,33.131,NaN,NaN
20040129,004428,2007690,33.792000,-119.986167,13.800,33.131,NaN,NaN
20040129,004458,2007720,33.791333,-119.984667,13.800,33.130,NaN,NaN
20040129,004529,2007751,33.790667,-119.983167,13.807,33.129,NaN,NaN
20040129,004559,2007781,33.790000,-119.981667,13.801,33.131,NaN,NaN
20040129,004628,2007810,33.789333,-119.980167,13.793,33.130,NaN,NaN
20040129,004658,2007840,33.788833,-119.978667,13.791,33.130,NaN,NaN
20040129,004729,2007871,33.788167,-119.977167,13.801,33.130,NaN,NaN
20040129,004759,2007901,33.787500,-119.975667,13.808,33.130,NaN,NaN
20040129,004829,2007931,33.786833,-119.974167,13.814,33.130,NaN,NaN
20040129,004858,2007960,33.786167,-119.972667,13.815,33.131,NaN,NaN
20040129,004928,2007990,33.785500,-119.971167,13.817,33.130,NaN,NaN
20040129,004959,2008021,33.784833,-119.969667,13.818,33.131,NaN,NaN
20040129,005029,2008051,33.784167,-119.968167,13.819,33.131,NaN,NaN
20040129,005058,2008080,33.783500,-119.966667,13.824,33.131,NaN,NaN
20040129,005128,2008110,33.782833,-119.965167,13.826,33.131,NaN,NaN
20040129,005159,2008141,33.782167,-119.963667,13.824,33.130,NaN,NaN
20040129,005229,2008171,33.781667,-119.962167,13.825,33.130,NaN,NaN
20040129,005259,2008201,33.781000,-119.960667,13.821,33.130,NaN,NaN
20040129,005328,2008230,33.780333,-119.959333,13.815,33.128,NaN,NaN
20040129,005358,2008260,33.779667,-119.957833,13.810,33.127,NaN,NaN
20040129,005429,2008291,33.779000,-119.956333,13.813,33.126,NaN,NaN
20040129,005459,2008321,33.778500,-119.954833,13.814,33.124,NaN,NaN
20040129,005528,2008350,33.777833,-119.953333,13.799,33.123,NaN,NaN
20040129,005558,2008380,33.777167,-119.951833,13.781,33.121,NaN,NaN
20040129,005629,2008411,33.776500,-119.950333,13.769,33.118,NaN,NaN
20040129,005659,2008441,33.775833,-119.948833,13.750,33.117,NaN,NaN
20040129,005729,2008471,33.775167,-119.947333,13.734,33.114,NaN,NaN
20040129,005758,2008500,33.774667,-119.945833,13.723,33.111,NaN,NaN
20040129,005828,2008530,33.774000,-119.944333,13.723,33.107,NaN,NaN
20040129,005859,2008561,33.773333,-119.942833,13.725,33.106,NaN,NaN
20040129,005929,2008591,33.772667,-119.941333,13.723,33.106,NaN,NaN
20040129,005958,2008620,33.772167,-119.939833,13.703,33.106,NaN,NaN
20040129,010028,2008650,33.771500,-119.938500,13.702,33.103,NaN,NaN
20040129,010059,2008681,33.770833,-119.937000,13.693,33.103,NaN,NaN
20040129,010129,2008711,33.770333,-119.935500,13.673,33.102,NaN,NaN
20040129,010159,2008741,33.769667,-119.934000,13.659,33.100,NaN,NaN
20040129,010228,2008770,33.769000,-119.932500,13.647,33.097,NaN,NaN
20040129,010258,2008800,33.768500,-119.931167,13.634,33.096,NaN,NaN
20040129,010329,2008831,33.767833,-119.929667,13.621,33.094,NaN,NaN
20040129,010359,2008861,33.767167,-119.928167,13.594,33.094,NaN,NaN
20040129,010428,2008890,33.766667,-119.926667,13.579,33.092,NaN,NaN
20040129,010458,2008920,33.766000,-119.925167,13.568,33.089,NaN,NaN
20040129,010529,2008951,33.765500,-119.923833,13.550,33.089,NaN,NaN
20040129,010559,2008981,33.764833,-119.922167,13.535,33.086,NaN,NaN
20040129,010629,2009011,33.764167,-119.920833,13.517,33.084,NaN,NaN
20040129,010658,2009040,33.763500,-119.919333,13.517,33.082,NaN,NaN
20040129,010728,2009070,33.763000,-119.917833,13.508,33.081,NaN,NaN
20040129,010759,2009101,33.762333,-119.916333,13.503,33.079,NaN,NaN
20040129,010829,2009131,33.761833,-119.914833,13.480,33.077,NaN,NaN
20040129,010858,2009160,33.761167,-119.913333,13.467,33.074,NaN,NaN
20040129,010928,2009190,33.760500,-119.911833,13.470,33.072,NaN,NaN
20040129,010959,2009221,33.760000,-119.910333,13.478,33.071,NaN,NaN
20040129,011029,2009251,33.759333,-119.909000,13.454,33.070,NaN,NaN
20040129,011059,2009281,33.758667,-119.907500,13.437,33.070,NaN,NaN
20040129,011128,2009310,33.758000,-119.906000,13.400,33.067,NaN,NaN
20040129,011158,2009340,33.757500,-119.904500,13.395,33.063,NaN,NaN
20040129,011229,2009371,33.756833,-119.903000,13.394,33.062,NaN,NaN
20040129,011259,2009401,33.756333,-119.901500,13.417,33.058,NaN,NaN
20040129,011328,2009430,33.755667,-119.900167,13.440,33.059,NaN,NaN
20040129,011358,2009460,33.755000,-119.898667,13.451,33.061,NaN,NaN
20040129,011429,2009491,33.754500,-119.897167,13.458,33.061,NaN,NaN
20040129,011459,2009521,33.753833,-119.895667,13.468,33.062,NaN,NaN
20040129,011529,2009551,33.753333,-119.894333,13.479,33.063,NaN,NaN
20040129,011558,2009580,33.752667,-119.892833,13.487,33.065,NaN,NaN
20040129,011628,2009610,33.752167,-119.891333,13.494,33.068,NaN,NaN
20040129,011659,2009641,33.751500,-119.890000,13.498,33.070,NaN,NaN
20040129,011729,2009671,33.750833,-119.888500,13.497,33.073,NaN,NaN
20040129,011758,2009700,33.750333,-119.887000,13.506,33.074,NaN,NaN
20040129,011828,2009730,33.749667,-119.885500,13.509,33.075,NaN,NaN
20040129,011859,2009761,33.749167,-119.884167,13.501,33.075,NaN,NaN
20040129,011929,2009791,33.748667,-119.882667,13.503,33.074,NaN,NaN
20040129,011959,2009821,33.748000,-119.881167,13.514,33.075,NaN,NaN
20040129,012028,2009850,33.747333,-119.879667,13.523,33.075,NaN,NaN
20040129,012058,2009880,33.746667,-119.878167,13.531,33.075,NaN,NaN
20040129,012129,2009911,33.746000,-119.876667,13.539,33.076,NaN,NaN
20040129,012159,2009941,33.745500,-119.875333,13.541,33.076,NaN,NaN
20040129,012228,2009970,33.745000,-119.873833,13.536,33.079,NaN,NaN
20040129,012258,2010000,33.744500,-119.872167,13.523,33.080,NaN,NaN
20040129,012329,2010031,33.744000,-119.870667,13.531,33.080,NaN,NaN
20040129,012359,2010061,33.743333,-119.869167,13.544,33.081,NaN,NaN
20040129,012429,2010091,33.742833,-119.867667,13.550,33.083,NaN,NaN
20040129,012458,2010120,33.742167,-119.866167,13.553,33.085,NaN,NaN
20040129,012528,2010150,33.741667,-119.864667,13.562,33.086,NaN,NaN
20040129,012559,2010181,33.741167,-119.863167,13.574,33.088,NaN,NaN
20040129,012629,2010211,33.740500,-119.861500,13.586,33.090,NaN,NaN
20040129,012658,2010240,33.740000,-119.860000,13.595,33.091,NaN,NaN
20040129,012728,2010270,33.739333,-119.858500,13.598,33.093,NaN,NaN
20040129,012759,2010301,33.738833,-119.857000,13.586,33.093,NaN,NaN
20040129,012829,2010331,33.738333,-119.855500,13.585,33.092,NaN,NaN
20040129,012859,2010361,33.737833,-119.854000,13.592,33.093,NaN,NaN
20040129,012928,2010390,33.737167,-119.852500,13.601,33.091,NaN,NaN
20040129,012958,2010420,33.736667,-119.850833,13.605,33.092,NaN,NaN
20040129,013029,2010451,33.736000,-119.849333,13.606,33.091,NaN,NaN
20040129,013059,2010481,33.735500,-119.847833,13.604,33.091,NaN,NaN
20040129,013128,2010510,33.735000,-119.846333,13.603,33.090,NaN,NaN
20040129,013158,2010540,33.734500,-119.844833,13.604,33.091,NaN,NaN
20040129,013229,2010571,33.733833,-119.843333,13.603,33.090,NaN,NaN
20040129,013259,2010601,33.733333,-119.841667,13.603,33.090,NaN,NaN
20040129,013329,2010631,33.732833,-119.840167,13.603,33.091,NaN,NaN
20040129,013358,2010660,33.732167,-119.838667,13.601,33.091,NaN,NaN
20040129,013428,2010690,33.731667,-119.837167,13.603,33.090,NaN,NaN
20040129,013459,2010721,33.731000,-119.835500,13.604,33.089,NaN,NaN
20040129,013529,2010751,33.730500,-119.834000,13.610,33.089,NaN,NaN
20040129,013558,2010780,33.730000,-119.832333,13.616,33.089,NaN,NaN
20040129,013628,2010810,33.729333,-119.830833,13.618,33.090,NaN,NaN
20040129,013659,2010841,33.728833,-119.829333,13.618,33.089,NaN,NaN
20040129,013729,2010871,33.728167,-119.827667,13.622,33.089,NaN,NaN
20040129,013759,2010901,33.727667,-119.826167,13.625,33.089,NaN,NaN
20040129,013828,2010930,33.727167,-119.824667,13.627,33.091,NaN,NaN
20040129,013858,2010960,33.726500,-119.823000,13.635,33.092,NaN,NaN
20040129,013929,2010991,33.726000,-119.821500,13.643,33.092,NaN,NaN
20040129,013959,2011021,33.725333,-119.819833,13.650,33.095,NaN,NaN
20040129,014028,2011050,33.724833,-119.818333,13.661,33.096,NaN,NaN
20040129,014058,2011080,33.724167,-119.816833,13.680,33.097,NaN,NaN
20040129,014129,2011111,33.723667,-119.815167,13.696,33.099,NaN,NaN
20040129,014159,2011141,33.723167,-119.813667,13.710,33.104,NaN,NaN
20040129,014229,2011171,33.722500,-119.812167,13.723,33.109,NaN,NaN
20040129,014258,2011200,33.721833,-119.810500,13.737,33.112,NaN,NaN
20040129,014328,2011230,33.721333,-119.809000,13.749,33.114,NaN,NaN
20040129,014359,2011261,33.720667,-119.807500,13.760,33.116,NaN,NaN
20040129,014429,2011291,33.720167,-119.805833,13.778,33.118,NaN,NaN
20040129,014458,2011320,33.719500,-119.804333,13.804,33.119,NaN,NaN
20040129,014528,2011350,33.719000,-119.802833,13.832,33.123,NaN,NaN
20040129,014559,2011381,33.718333,-119.801333,13.859,33.126,NaN,NaN
20040129,014629,2011411,33.717833,-119.799667,13.882,33.128,NaN,NaN
20040129,014659,2011441,33.717167,-119.798167,13.896,33.131,NaN,NaN
20040129,014728,2011470,33.716500,-119.796667,13.912,33.132,NaN,NaN
20040129,014758,2011500,33.716000,-119.795167,13.929,33.134,NaN,NaN
20040129,014829,2011531,33.715500,-119.793667,13.941,33.138,NaN,NaN
20040129,014859,2011561,33.714833,-119.792167,13.946,33.141,NaN,NaN
20040129,014928,2011590,33.714167,-119.790667,13.953,33.144,NaN,NaN
20040129,014958,2011620,33.713667,-119.789167,13.965,33.145,NaN,NaN
20040129,015029,2011651,33.713000,-119.787667,13.977,33.148,NaN,NaN
20040129,015059,2011681,33.712500,-119.786000,13.985,33.149,NaN,NaN
20040129,015129,2011711,33.711833,-119.784500,13.990,33.151,NaN,NaN
20040129,015158,2011740,33.711167,-119.783000,13.991,33.151,NaN,NaN
20040129,015228,2011770,33.710500,-119.781500,13.992,33.152,NaN,NaN
20040129,015259,2011801,33.710000,-119.780000,13.993,33.153,NaN,NaN
20040129,015329,2011831,33.709333,-119.778500,13.996,33.153,NaN,NaN
20040129,015358,2011860,33.708833,-119.776833,13.999,33.153,NaN,NaN
20040129,015428,2011890,33.708167,-119.775333,14.000,33.154,NaN,NaN
20040129,015459,2011921,33.707500,-119.773833,14.004,33.154,NaN,NaN
20040129,015529,2011951,33.707000,-119.772167,14.018,33.153,NaN,NaN
20040129,015559,2011981,33.706333,-119.770667,14.023,33.153,NaN,NaN
20040129,015628,2012010,33.705667,-119.769167,14.012,33.153,NaN,NaN
20040129,015658,2012040,33.705167,-119.767667,13.995,33.151,NaN,NaN
20040129,015729,2012071,33.704500,-119.766167,13.975,33.149,NaN,NaN
20040129,015759,2012101,33.704000,-119.764500,13.970,33.145,NaN,NaN
20040129,015828,2012130,33.703333,-119.763000,13.974,33.143,NaN,NaN
20040129,015858,2012160,33.702667,-119.761500,13.982,33.141,NaN,NaN
20040129,015929,2012191,33.702167,-119.760000,13.989,33.140,NaN,NaN
20040129,015959,2012221,33.701500,-119.758500,13.994,33.139,NaN,NaN
20040129,020029,2012251,33.700833,-119.756833,13.989,33.138,NaN,NaN
20040129,020058,2012280,33.700167,-119.755333,13.983,33.136,NaN,NaN
20040129,020128,2012310,33.699667,-119.753833,13.974,33.134,NaN,NaN
20040129,020159,2012341,33.699000,-119.752333,13.965,33.132,NaN,NaN
20040129,020229,2012371,33.698333,-119.751000,13.951,33.129,NaN,NaN
20040129,020258,2012400,33.697667,-119.749500,13.931,33.127,NaN,NaN
20040129,020328,2012430,33.697000,-119.748000,13.921,33.125,NaN,NaN
20040129,020359,2012461,33.696333,-119.746500,13.918,33.122,NaN,NaN
20040129,020429,2012491,33.695667,-119.745000,13.916,33.122,NaN,NaN
20040129,020459,2012521,33.695000,-119.743333,13.916,33.121,NaN,NaN
20040129,020528,2012550,33.694333,-119.741833,13.912,33.120,NaN,NaN
20040129,020558,2012580,33.693833,-119.740333,13.908,33.119,NaN,NaN
20040129,020629,2012611,33.693167,-119.738833,13.906,33.119,NaN,NaN
20040129,020659,2012641,33.692500,-119.737333,13.902,33.119,NaN,NaN
20040129,020728,2012670,33.691833,-119.735833,13.900,33.119,NaN,NaN
20040129,020758,2012700,33.691167,-119.734333,13.907,33.119,NaN,NaN
20040129,020829,2012731,33.690500,-119.732833,13.906,33.120,NaN,NaN
20040129,020859,2012761,33.689833,-119.731167,13.902,33.120,NaN,NaN
20040129,020929,2012791,33.689167,-119.729667,13.897,33.120,NaN,NaN
20040129,020958,2012820,33.688500,-119.728167,13.893,33.120,NaN,NaN
20040129,021028,2012850,33.687833,-119.726667,13.889,33.119,NaN,NaN
20040129,021059,2012881,33.687167,-119.725167,13.885,33.119,NaN,NaN
20040129,021129,2012911,33.686500,-119.723667,13.881,33.119,NaN,NaN
20040129,021158,2012940,33.685833,-119.722167,13.878,33.120,NaN,NaN
20040129,021228,2012970,33.685000,-119.720833,13.871,33.120,NaN,NaN
20040129,021259,2013001,33.684333,-119.719333,13.867,33.119,NaN,NaN
20040129,021329,2013031,33.683667,-119.717833,13.867,33.119,NaN,NaN
20040129,021359,2013061,33.683000,-119.716500,13.866,33.117,NaN,NaN
20040129,021428,2013090,33.682500,-119.715000,13.863,33.119,NaN,NaN
20040129,021458,2013120,33.681833,-119.713500,13.859,33.119,NaN,NaN
20040129,021529,2013151,33.681000,-119.712000,13.852,33.119,NaN,NaN
20040129,021559,2013181,33.680333,-119.710500,13.861,33.118,NaN,NaN
20040129,021628,2013210,33.679833,-119.709000,13.876,33.117,NaN,NaN
20040129,021658,2013240,33.679167,-119.707500,13.880,33.118,NaN,NaN
20040129,021729,2013271,33.678500,-119.706000,13.876,33.119,NaN,NaN
20040129,021759,2013301,33.677833,-119.704500,13.872,33.118,NaN,NaN
20040129,021829,2013331,33.677167,-119.703000,13.876,33.118,NaN,NaN
20040129,021858,2013360,33.676500,-119.701500,13.878,33.118,NaN,NaN
20040129,021928,2013390,33.675833,-119.700167,13.874,33.120,NaN,NaN
20040129,021959,2013421,33.675167,-119.698667,13.871,33.120,NaN,NaN
20040129,022029,2013451,33.674500,-119.697167,13.873,33.120,NaN,NaN
20040129,022058,2013480,33.673667,-119.695667,13.875,33.120,NaN,NaN
20040129,022128,2013510,33.673000,-119.694167,13.876,33.120,NaN,NaN
20040129,022159,2013541,33.672333,-119.692667,13.872,33.121,NaN,NaN
20040129,022229,2013571,33.671833,-119.691167,13.871,33.121,NaN,NaN
20040129,022259,2013601,33.671167,-119.689667,13.870,33.121,NaN,NaN
20040129,022328,2013630,33.670500,-119.688333,13.867,33.121,NaN,NaN
20040129,022358,2013660,33.669833,-119.686833,13.860,33.122,NaN,NaN
20040129,022429,2013691,33.669167,-119.685333,13.856,33.121,NaN,NaN
20040129,022459,2013721,33.668500,-119.683833,13.857,33.121,NaN,NaN
20040129,022528,2013750,33.667833,-119.682500,13.859,33.122,NaN,NaN
20040129,022558,2013780,33.667167,-119.681000,13.864,33.122,NaN,NaN
20040129,022629,2013811,33.666500,-119.679500,13.861,33.122,NaN,NaN
20040129,022659,2013841,33.665833,-119.678000,13.858,33.123,NaN,NaN
20040129,022729,2013871,33.665167,-119.676500,13.854,33.121,NaN,NaN
20040129,022758,2013900,33.664500,-119.675000,13.854,33.122,NaN,NaN
20040129,022828,2013930,33.663833,-119.673500,13.862,33.121,NaN,NaN
20040129,022859,2013961,33.663333,-119.672000,13.867,33.122,NaN,NaN
20040129,022929,2013991,33.662667,-119.670500,13.870,33.122,NaN,NaN
20040129,022958,2014020,33.662000,-119.669167,13.872,33.122,NaN,NaN
20040129,023028,2014050,33.661167,-119.667667,13.874,33.120,NaN,NaN
20040129,023059,2014081,33.660500,-119.666333,13.878,33.121,NaN,NaN
20040129,023129,2014111,33.660000,-119.664833,13.881,33.122,NaN,NaN
20040129,023159,2014141,33.659333,-119.663333,13.880,33.122,NaN,NaN
20040129,023228,2014170,33.658667,-119.661833,13.878,33.123,NaN,NaN
20040129,023258,2014200,33.658000,-119.660333,13.881,33.122,NaN,NaN
20040129,023329,2014231,33.657333,-119.658833,13.885,33.121,NaN,NaN
20040129,023359,2014261,33.656500,-119.657500,13.884,33.122,NaN,NaN
20040129,023428,2014290,33.655833,-119.656000,13.882,33.122,NaN,NaN
20040129,023458,2014320,33.655167,-119.654500,13.875,33.123,NaN,NaN
20040129,023529,2014351,33.654500,-119.653000,13.860,33.124,NaN,NaN
20040129,023559,2014381,33.653833,-119.651500,13.854,33.123,NaN,NaN
20040129,023629,2014411,33.653167,-119.650000,13.856,33.123,NaN,NaN
20040129,023658,2014440,33.652667,-119.648500,13.864,33.122,NaN,NaN
20040129,023728,2014470,33.652000,-119.647167,13.869,33.122,NaN,NaN
20040129,023759,2014501,33.651333,-119.645667,13.875,33.122,NaN,NaN
20040129,023829,2014531,33.650667,-119.644167,13.881,33.122,NaN,NaN
20040129,023858,2014560,33.650000,-119.642667,13.882,33.123,NaN,NaN
20040129,023928,2014590,33.649333,-119.641333,13.884,33.123,NaN,NaN
20040129,023959,2014621,33.648667,-119.639667,13.886,33.123,NaN,NaN
20040129,024029,2014651,33.648000,-119.638167,13.889,33.123,NaN,NaN
20040129,024059,2014681,33.647167,-119.636833,13.894,33.123,NaN,NaN
20040129,024128,2014710,33.646500,-119.635333,13.895,33.123,NaN,NaN
20040129,024158,2014740,33.645833,-119.633833,13.899,33.123,NaN,NaN
20040129,024229,2014771,33.645167,-119.632333,13.903,33.123,NaN,NaN
20040129,024259,2014801,33.644500,-119.630833,13.905,33.124,NaN,NaN
20040129,024328,2014830,33.643833,-119.629333,13.916,33.123,NaN,NaN
20040129,024358,2014860,33.643167,-119.627833,13.921,33.123,NaN,NaN
20040129,024429,2014891,33.642500,-119.626333,13.931,33.122,NaN,NaN
20040129,024459,2014921,33.641833,-119.625000,13.944,33.121,NaN,NaN
20040129,024529,2014951,33.641167,-119.623500,13.950,33.121,NaN,NaN
20040129,024558,2014980,33.640500,-119.622000,13.952,33.122,NaN,NaN
20040129,024628,2015010,33.639833,-119.620500,13.961,33.121,NaN,NaN
20040129,024659,2015041,33.639167,-119.619000,13.971,33.121,NaN,NaN
20040129,024729,2015071,33.638500,-119.617500,13.979,33.120,NaN,NaN
20040129,024758,2015100,33.637833,-119.616000,13.983,33.121,NaN,NaN
20040129,024828,2015130,33.637167,-119.614500,13.986,33.121,NaN,NaN
20040129,024859,2015161,33.636500,-119.613000,13.989,33.121,NaN,NaN
20040129,024929,2015191,33.635833,-119.611500,13.993,33.120,NaN,NaN
20040129,024959,2015221,33.635167,-119.610000,13.999,33.120,NaN,NaN
20040129,025028,2015250,33.634500,-119.608667,14.001,33.119,NaN,NaN
20040129,025058,2015280,33.633833,-119.607000,14.004,33.119,NaN,NaN
20040129,025129,2015311,33.633167,-119.605500,14.005,33.119,NaN,NaN
20040129,025159,2015341,33.632500,-119.604000,14.009,33.119,NaN,NaN
20040129,025228,2015370,33.631833,-119.602500,14.013,33.119,NaN,NaN
20040129,025258,2015400,33.631167,-119.601000,14.018,33.119,NaN,NaN
20040129,025329,2015431,33.630500,-119.599500,14.023,33.119,NaN,NaN